SCOUT X-1 R/B, 82

Orbit data source: Space-Track

SCOUT X-1 R/B, 82 is space debris in LEO originally from a launch on Thu, 16 Feb 1961 UTC launched from the Wallops Island (WLPIS). Debris objects in space refer to the collection of defunct objects orbiting the Earth. Examples of debris include non-operational satellites, rocket bodies, and fragments generated from explosions, collisions, or faulty payload assembly.

Loading next visibility...
Identifier
82, 1961-004B
Orbit
LEO
Country
Flag of USUS
Related business
Manufacturer
ABL
Mission
Spacecraft
Bus & Motor
ALTAIR, Unknown motor
Mass
53 kg wet, 24 kg dry
Launch date (UTC)
1961-02-16 (65 years ago)
Launch vehicle
Unknown
Launch site
Wallops Island (WLPIS)
Object type
Payload
Rocket body
Debris
Shape & HBR
CYL, 0.8 m
Radar Cross Section
Medium (>0.1 m² and <1 m²)

Expand to show TLE details & history
Last TLE update: 15 hours ago

TLE from 15 hours ago
0 SCOUT X-1 R/B
1 00082U 61004B   26206.43331910  .00000097  00000-0  12997-3 0  9998
2 00082  38.8521 217.7267 1165854  51.2254 318.6924 12.27925891 81503
Epoch: 2026-07-25T10:23Z
TLE epoch observation values (Epoch: 2026-07-25T10:23:58.770Z)
Latitude
-0.00004°
Longitude
118.58611°
Altitude
916.332 km
Speed
7.688 km/s
True Right ascension
14h 30m 54s
True Declination
0° 00' 00"
Sunlit
Object was in daylight at epoch
Visualization orbit readout
Latitude
Unknown
Longitude
Unknown
Altitude
Unknown
Speed
Unknown
Apparent Right ascension
Unknown
Apparent Declination
Unknown
Sunlit
N/A
Visualization observer readout
Local Sidereal Time
14:19:37
Azimuth
Unknown
Elevation
Unknown
Doppler factor
Unknown
Orbital elements
Apogee altitude
2,486.065 km
Perigee altitude
634.999 km
Semi-major axis
7,938.669 km
Eccentricity
0.11659
Inclination
38.8521°
RAAN
217.7267°
Arg. of periapsis
51.2254°
True anomaly
308.84501°
Mean anomaly
318.6924°
Eccentric anomaly
313.8774°
Mean motion
3.06847 °/min
Orbital period
117.32 mins
BSTAR
0.00012997
Loading maneuver chart data...
Computing Atmospheric mass density...
Loading historical data...
Loading historical data...
Loading historical data...
Loading historical data...
Loading historical data...
Loading historical data...
Loading historical data...

Documentation

Showing up to 5 results
|